Location: Round Knob
(37.2473°N, 88.7376°W)
Time: 21:47:14
(UTC+00:00)

N. Korean satellite - Pass Details

Date: 04 October 2021
Orbit: 450 x 495 km, 97.3° (Epoch: 23 October)

Event Time Altitude Azimuth Distance (km) Brightness Sun altitude
Rises 10:19:12 0° 30° (NNE) 2,563 10.8 -19.5°
Reaches altitude 10° 10:21:46 10° 49° (NE) 1,684 10.1 -19.0°
Maximum altitude 10:24:20 18° 95° (E) 1,255 9.6 -18.5°
Drops below altitude 10° 10:26:55 10° 140° (SE) 1,684 9.7 -18.0°
Sets 10:29:28 0° 159° (SSE) 2,564 10.4 -17.5°
